This is the latest recevied weather packets stored in our database for station/object KC5EZZ-2. If no packets are shown the sender has not sent any weather packets the latest 10 day(s).
| Time | Temp. | Humidity | Pressure | Rain* | Wind** | Luminosity | Snow |
|---|---|---|---|---|---|---|---|
| 1787695847 | 40° C | - | - | 0 mm | 3.13 m/s, 77° | - | - |
| 1787695551 | 39.44° C | - | - | 0 mm | 4.47 m/s, 94° | - | - |
| 1787695248 | 39.44° C | - | - | 0 mm | 2.24 m/s, 83° | - | - |
| 1787694945 | 40° C | - | - | 0 mm | 2.24 m/s, 162° | - | - |
| 1787694645 | 40° C | - | - | 0 mm | 4.02 m/s, 350° | - | - |
| 1787694345 | 40° C | - | - | 0 mm | 3.58 m/s, 146° | - | - |
| 1787694042 | 40° C | - | - | 0 mm | 4.02 m/s, 100° | - | - |
| 1787693742 | 41.67° C | - | - | 0 mm | 3.13 m/s, 127° | - | - |
| 1787693442 | 41.67° C | - | - | 0 mm | 3.13 m/s, 211° | - | - |
| 1787693139 | 40° C | - | - | 0 mm | 2.24 m/s, 146° | - | - |
| 1787692839 | 41.11° C | - | - | 0 mm | 4.02 m/s, 124° | - | - |
| 1787692539 | 40.56° C | - | - | 0 mm | 2.24 m/s, 103° | - | - |
| 1787692236 | 40° C | - | - | 0 mm | 2.68 m/s, 93° | - | - |
| 1787691936 | 40° C | - | - | 0 mm | 1.34 m/s, 139° | - | - |
| 1787691636 | 40° C | - | - | 0 mm | 3.13 m/s, 91° | - | - |
| 1787691333 | 40.56° C | - | - | 0 mm | 2.68 m/s, 105° | - | - |
| 1787691033 | 40° C | - | - | 0 mm | 1.34 m/s, 312° | - | - |
| 1787690786 | 39.44° C | - | - | 0 mm | 4.02 m/s, 104° | - | - |
| 1787690733 | 40.56° C | - | - | 0 mm | 3.58 m/s, 153° | - | - |
| 1787690430 | 39.44° C | - | - | 0 mm | 4.02 m/s, 104° | - | - |
| 1787690130 | 39.44° C | - | - | 0 mm | 4.47 m/s, 104° | - | - |
| 1787689830 | 39.44° C | - | - | 0 mm | 3.58 m/s, 58° | - | - |
| 1787689527 | 40° C | - | - | 0 mm | 3.13 m/s, 66° | - | - |
| 1787689227 | 40° C | - | - | 0 mm | 3.13 m/s, 70° | - | - |
| 1787688928 | 38.33° C | - | - | 0 mm | 3.13 m/s, 91° | - | - |
* Rain latest hour (hover to see other rain measurements)
** Current wind speed in m/s (hover to see current wind gust speed)